[[{"header":{"parameterUnit":"m.s-1","parameterCategory":1,"la1":30.2991,"la2":30.254,"lo1":-89.0895,"lo2":-89.0444,"dx":0.0017,"dy":0.0017,"nx":28,"ny":28,"refTime":"2022-12-13T09:00:00:Z","depth":0,"parameterNumber":2,"parameterNumberName":"U-component_of_WINDS"},"data":[0,0,0,0,0,0,0,0,0,0,0,0,0,0,0,0,0,0,0,0,0,0,0,0,0,0,0,0,0,0,0,0,0,0,0,0,0,0,0,0,0,0,0,0,0,0,0,0,0,0,0,0,0,0,0,0,0,0,3.3228,3.3229,0,3.3339,3.3341,3.3342,3.3306,3.3303,3.3301,3.3298,3.3421,3.3426,3.3432,0,0,0,0,0,0,0,0,0,0,0,0,0,3.2995,3.2999,3.3228,3.3229,3.3231,3.3339,3.3341,3.3342,3.3306,3.3303,3.33,3.3297,3.3419,3.3425,3.3432,0,0,0,0,0,0,0,0,0,0,0,0,0,3.3101,3.3001,3.3228,3.3225,3.3226,3.3339,3.3341,3.3343,3.3307,3.3303,3.3299,3.3296,3.3417,3.3425,3.3433,3.3557,0,0,3.3458,3.3462,0,0,0,0,0,0,0,0,3.3095,3.3109,3.3224,3.3226,3.3227,3.3305,3.3304,3.3415,3.3308,3.3276,3.3298,3.3294,3.3386,3.3396,3.3425,3.3563,3.3568,3.3459,3.3464,3.3468,3.347,0,0,0,0,0,0,0,3.3087,3.3104,3.3272,3.3226,3.3228,3.3223,3.3234,3.3325,3.335,3.3279,3.3276,3.329,3.3386,3.3418,3.3428,3.357,3.3459,3.3466,3.3471,3.3474,3.3823,3.3827,0,0,0,0,0,0,3.3078,3.3098,3.3269,3.3276,3.315,3.323,3.3242,3.3284,3.3349,3.3355,3.3293,3.3288,3.3405,3.3418,3.3432,3.3587,3.3468,3.3475,3.348,3.3819,3.3824,3.3829,0,0,0,0,0,0,3.3073,3.3093,3.3264,3.3186,3.3208,3.3238,3.3285,3.3288,3.3319,3.3359,3.3365,3.332,3.3403,3.3421,3.3527,3.359,3.3479,3.3487,3.3814,3.382,3.3826,3.3893,0,0,0,0,0,0,3.3066,3.3092,3.3136,3.3187,3.3212,3.3354,3.3288,3.3292,3.3333,3.3327,3.3386,3.3393,3.3401,3.3515,3.3536,3.36,3.3493,3.3808,3.3817,3.3824,3.3886,3.3901,3.3915,0,0,0,0,0,3.3058,3.3151,3.3138,3.3159,3.3267,3.3357,3.3372,3.3377,3.3338,3.3385,3.3412,3.3391,3.358,3.3526,3.3549,3.3617,3.3804,3.3814,3.3824,3.3879,3.3898,3.3914,0,0,0,0,0,0,3.3107,3.3157,3.3144,3.3255,3.3302,3.3351,3.341,3.3396,3.3457,3.345,3.3457,3.3471,3.3582,3.361,3.3549,3.3744,3.3687,3.3702,3.3722,3.374,3.3754,3.3746,3.35,0,0,0,0,0,3.313,3.3196,3.3237,3.3332,3.3356,3.3379,3.3419,3.3419,3.347,3.349,3.3524,3.3577,3.3649,3.3696,3.3763,3.389,3.3906,3.3948,3.3962,3.3974,3.3987,3.4063,3.4084,3.386,3.386,3.386,0,0,3.3179,3.3215,3.3256,3.3343,3.3379,3.3452,3.3396,3.3473,3.3529,3.3502,3.3606,3.3634,3.3693,3.3812,3.3866,3.3839,3.4053,3.3986,3.3995,3.4003,3.4075,3.4097,3.4116,3.3867,3.3866,3.3865,0,0,3.3307,3.3338,3.3423,3.3461,3.3517,3.3533,3.3554,3.3606,3.3624,3.3727,3.3711,3.3779,3.39,3.3945,3.3984,3.4136,3.4121,3.4158,3.4234,3.4308,3.4326,3.4341,3.4401,3.4421,3.4171,3.4171,3.4171,0,3.3362,3.3466,3.3469,3.3549,3.359,3.3569,3.3658,3.3696,3.3773,3.3804,3.3772,3.3928,3.3966,3.4099,3.4136,3.4167,3.4195,3.4151,3.4322,3.4338,3.4353,3.441,3.4431,3.4175,3.4175,3.4174,3.4174,0,3.3534,3.3608,3.367,3.3744,3.3792,3.3877,3.3896,3.3946,3.3944,3.3965,3.4075,3.4121,3.42,3.4232,3.423,3.4366,3.4348,3.4319,3.4262,3.4379,3.4432,3.4454,3.4182,3.418,3.4179,3.4178,0,0,3.3693,3.377,3.3793,3.3829,3.3892,3.3951,3.4038,3.4114,3.4159,3.4214,3.4291,3.4397,3.4372,3.4417,3.4421,3.4485,3.461,3.445,3.4451,3.4481,3.477,3.4793,3.4818,3.46,3.4604,3.4607,3.4766,0,3.3828,3.3977,3.3984,3.4121,3.4193,3.4177,3.4254,3.4304,3.4327,3.4395,3.4422,3.4499,3.4458,3.4486,3.4549,3.4581,3.4669,3.457,3.4677,3.468,3.4664,3.4845,3.4868,3.5016,3.4787,3.479,3.4793,0,3.4005,3.4066,3.421,3.4268,3.4299,3.4367,3.4441,3.4504,3.4563,3.4577,3.4629,3.4626,3.4721,3.466,3.4794,3.4727,3.4772,3.4796,3.4802,3.4814,3.4745,3.4866,3.5062,3.5086,3.4825,3.4822,3.482,0,3.4112,3.423,3.4333,3.4363,3.4433,3.4482,3.4514,3.4569,3.4617,3.4683,3.4715,3.4792,3.4835,3.4898,3.4918,3.4871,3.5055,3.4993,3.5073,3.5073,3.5113,3.5111,3.5323,3.5137,3.5137,3.5136,3.5136,0,3.4264,3.4354,3.4382,3.4446,3.4548,3.4559,3.4662,3.4691,3.4742,3.4815,3.4806,3.4876,3.4897,3.4972,3.4989,3.5102,3.512,3.5138,3.5142,3.514,3.5139,3.5171,3.5163,3.5142,3.5141,3.514,3.5139,0,3.44,3.4422,3.4534,3.4592,3.4609,3.4682,3.4734,3.4798,3.4822,3.4915,3.4938,3.4977,3.5065,3.5092,3.5198,3.5211,3.5344,3.5337,3.5323,3.5325,3.5404,3.5398,3.5647,3.5683,3.547,3.5472,3.5474,0,3.4497,3.4566,3.4632,3.4679,3.4713,3.4789,3.4838,3.4854,3.4906,3.4982,3.5039,3.5126,3.5197,3.5341,3.5381,3.5465,3.5463,3.5545,3.5475,3.5474,3.547,3.5466,3.5476,3.5558,3.5561,3.5562,3.5564,0,3.4668,3.4677,3.4746,3.4821,3.488,3.494,3.4999,3.5039,3.5064,3.5124,3.5214,3.5269,3.538,3.5469,3.5555,3.5593,3.5586,3.5585,3.5609,3.5609,3.56,3.5611,3.5363,3.558,3.5578,3.5577,3.5576,3.5575,3.479,3.4853,3.4911,3.499,3.5036,3.5092,3.5157,3.519,3.5264,3.5353,3.5359,3.5459,3.5523,3.5638,3.5681,3.5763,3.5739,3.5772,3.5781,3.579,3.5799,3.5585,3.5778,3.5778,3.5777,3.5777,3.5777,0,3.4965,3.5002,3.5075,3.5157,3.5222,3.5206,3.5271,3.5328,3.5414,3.5474,3.5544,3.5652,3.574,3.5789,3.5878,3.5935,3.5934,3.5958,3.5956,3.5966,3.5812,3.5785,3.5958,3.5958,3.5958,3.5958,3.5958,3.5958,3.5063,3.517,3.5187,3.532,3.5357,3.5453,3.5492,3.5547,3.5595,3.5714,3.5787,3.5817,3.5875,3.597,3.6052,3.6065,3.6101,3.6128,3.6139,3.5995,3.5976,3.5958,3.5933,3.6135,3.6135,3.6287,3.6288,3.6289]},{"header":{"parameterUnit":"m.s-1","parameterCategory":1,"la1":30.2991,"la2":30.254,"lo1":-89.0895,"lo2":-89.0444,"dx":0.0017,"dy":0.0017,"nx":28,"ny":28,"refTime":"2022-12-13T09:00:00:Z","depth":0,"parameterNumber":3,"parameterNumberName":"V-component_of_WINDS"},"data":[0,0,0,0,0,0,0,0,0,0,0,0,0,0,0,0,0,0,0,0,0,0,0,0,0,0,0,0,0,0,0,0,0,0,0,0,0,0,0,0,0,0,0,0,0,0,0,0,0,0,0,0,0,0,0,0,0,0,-3.2175,-3.2173,0,-3.1979,-3.1977,-3.1975,-3.1872,-3.1872,-3.1872,-3.1872,-3.1651,-3.1645,-3.1639,0,0,0,0,0,0,0,0,0,0,0,0,0,-3.2446,-3.2442,-3.2176,-3.2173,-3.2171,-3.198,-3.1977,-3.1974,-3.1872,-3.1872,-3.1872,-3.1872,-3.1653,-3.1646,-3.1639,0,0,0,0,0,0,0,0,0,0,0,0,0,-3.2297,-3.2441,-3.2176,-3.2098,-3.2089,-3.198,-3.1977,-3.1973,-3.1872,-3.1872,-3.1872,-3.1872,-3.1655,-3.1647,-3.1638,-3.1586,0,0,-3.1611,-3.1608,0,0,0,0,0,0,0,0,-3.2305,-3.2287,-3.2111,-3.2103,-3.2093,-3.1951,-3.1991,-3.1843,-3.1872,-3.1954,-3.1872,-3.1872,-3.1749,-3.1733,-3.1696,-3.1576,-3.1567,-3.1611,-3.1605,-3.1601,-3.1599,0,0,0,0,0,0,0,-3.2316,-3.2295,-3.2097,-3.2109,-3.2097,-3.2067,-3.2045,-3.1962,-3.1854,-3.1947,-3.1939,-3.1918,-3.1744,-3.1704,-3.169,-3.1563,-3.1611,-3.1603,-3.1598,-3.1594,-3.1392,-3.1392,0,0,0,0,0,0,-3.2341,-3.2304,-3.2103,-3.2091,-3.2202,-3.2062,-3.2038,-3.1996,-3.1855,-3.1834,-3.1918,-3.1914,-3.1719,-3.17,-3.1681,-3.1613,-3.1602,-3.1593,-3.1588,-3.1392,-3.1392,-3.1392,0,0,0,0,0,0,-3.2348,-3.2325,-3.2111,-3.2196,-3.2166,-3.2058,-3.2011,-3.1992,-3.1953,-3.1834,-3.1812,-3.1899,-3.1718,-3.1694,-3.1612,-3.1603,-3.1589,-3.1581,-3.1392,-3.1392,-3.1392,-3.1475,0,0,0,0,0,0,-3.2356,-3.2328,-3.2311,-3.2196,-3.2162,-3.2051,-3.201,-3.1988,-3.194,-3.1933,-3.181,-3.1789,-3.1716,-3.1626,-3.1604,-3.1591,-3.1575,-3.1392,-3.1392,-3.1392,-3.1472,-3.1477,-3.1482,0,0,0,0,0,-3.2366,-3.2337,-3.231,-3.2287,-3.214,-3.2051,-3.2031,-3.1954,-3.194,-3.192,-3.1844,-3.1793,-3.1609,-3.1619,-3.1593,-3.1577,-3.1392,-3.1392,-3.1392,-3.147,-3.1476,-3.1482,0,0,0,0,0,0,-3.2445,-3.232,-3.2289,-3.2224,-3.215,-3.2034,-3.2006,-3.1963,-3.1885,-3.1881,-3.1782,-3.1755,-3.1683,-3.1621,-3.1635,-3.152,-3.1495,-3.149,-3.1563,-3.1568,-3.1573,-3.1589,-3.1567,0,0,0,0,0,-3.2457,-3.2401,-3.2292,-3.2244,-3.221,-3.2115,-3.2073,-3.2021,-3.1937,-3.1903,-3.1821,-3.1737,-3.166,-3.161,-3.1533,-3.1463,-3.1434,-3.144,-3.1444,-3.1449,-3.1445,-3.1403,-3.1404,-3.1391,-3.1391,-3.1391,0,0,-3.2476,-3.2402,-3.2371,-3.2259,-3.2195,-3.2135,-3.2089,-3.2026,-3.1979,-3.1891,-3.1812,-3.1749,-3.1648,-3.1573,-3.1535,-3.1519,-3.1443,-3.1449,-3.1453,-3.1446,-3.1403,-3.1404,-3.1406,-3.139,-3.139,-3.139,0,0,-3.2482,-3.2421,-3.2376,-3.2315,-3.2223,-3.216,-3.215,-3.2041,-3.1999,-3.1919,-3.1853,-3.1792,-3.1662,-3.1593,-3.1541,-3.1525,-3.1475,-3.1502,-3.1526,-3.1487,-3.1488,-3.1488,-3.1482,-3.1481,-3.1498,-3.1499,-3.1499,0,-3.2517,-3.243,-3.2356,-3.23,-3.2251,-3.2178,-3.2129,-3.2071,-3.1954,-3.192,-3.1906,-3.1744,-3.1669,-3.1578,-3.1576,-3.1536,-3.1517,-3.1515,-3.1495,-3.1495,-3.1494,-3.1486,-3.1485,-3.1503,-3.1502,-3.1502,-3.1501,0,-3.2477,-3.2417,-3.239,-3.2289,-3.2237,-3.2184,-3.2099,-3.2054,-3.2007,-3.1946,-3.1864,-3.1774,-3.1679,-3.1653,-3.1602,-3.1554,-3.1547,-3.1515,-3.1487,-3.1501,-3.1492,-3.1489,-3.1508,-3.1507,-3.1506,-3.1505,0,0,-3.2524,-3.2388,-3.2379,-3.2333,-3.2226,-3.2176,-3.2118,-3.2032,-3.1995,-3.1918,-3.1865,-3.1759,-3.173,-3.1671,-3.1613,-3.1579,-3.1572,-3.155,-3.1546,-3.1557,-3.1511,-3.1536,-3.1535,-3.1539,-3.1539,-3.1538,-3.152,0,-3.2515,-3.2416,-3.235,-3.2274,-3.2217,-3.2148,-3.2097,-3.2024,-3.1965,-3.1903,-3.1835,-3.1762,-3.173,-3.1694,-3.1658,-3.1581,-3.1561,-3.1581,-3.1484,-3.1482,-3.1512,-3.153,-3.1555,-3.1542,-3.1516,-3.1515,-3.1515,0,-3.249,-3.2423,-3.2345,-3.2248,-3.2221,-3.2178,-3.2095,-3.2038,-3.1952,-3.1911,-3.1849,-3.1792,-3.1723,-3.1704,-3.1606,-3.1622,-3.1577,-3.1534,-3.1531,-3.1518,-3.1499,-3.1516,-3.1536,-3.1535,-3.1509,-3.1509,-3.151,0,-3.2533,-3.2422,-3.2362,-3.2324,-3.2209,-3.2181,-3.213,-3.2046,-3.1999,-3.1923,-3.1891,-3.1806,-3.1759,-3.1692,-3.1611,-3.1604,-3.1521,-3.1495,-3.1481,-3.1484,-3.1465,-3.1467,-3.1478,-3.1439,-3.1439,-3.1439,-3.1439,0,-3.2529,-3.2483,-3.2381,-3.2343,-3.2289,-3.2212,-3.2158,-3.2101,-3.2027,-3.1973,-3.1905,-3.1855,-3.1753,-3.1688,-3.1624,-3.1552,-3.1531,-3.1493,-3.1476,-3.1498,-3.1503,-3.1467,-3.1465,-3.1439,-3.1439,-3.1439,-3.1439,0,-3.2566,-3.2496,-3.2426,-3.2326,-3.2299,-3.2264,-3.2175,-3.2133,-3.2073,-3.2006,-3.1985,-3.1887,-3.1809,-3.1723,-3.1612,-3.1569,-3.1501,-3.1477,-3.1533,-3.1523,-3.1515,-3.1517,-3.1501,-3.1495,-3.1462,-3.1463,-3.1463,0,-3.2568,-3.2533,-3.2431,-3.2395,-3.2349,-3.2289,-3.2243,-3.2164,-3.2118,-3.202,-3.1989,-3.1908,-3.1838,-3.1714,-3.1629,-3.1545,-3.1517,-3.1518,-3.1503,-3.1528,-3.1516,-3.152,-3.1515,-3.1522,-3.1523,-3.1523,-3.1524,0,-3.2579,-3.2547,-3.2487,-3.2416,-3.2365,-3.2302,-3.2237,-3.2208,-3.2116,-3.2066,-3.199,-3.1937,-3.1829,-3.1747,-3.1653,-3.1593,-3.1542,-3.153,-3.1522,-3.1544,-3.1578,-3.156,-3.1544,-3.153,-3.1529,-3.1529,-3.1529,-3.1528,-3.2597,-3.2564,-3.2489,-3.2424,-3.2369,-3.231,-3.2268,-3.2205,-3.2142,-3.2053,-3.2009,-3.1932,-3.1846,-3.1716,-3.1659,-3.1594,-3.1577,-3.1566,-3.1563,-3.1561,-3.1568,-3.1591,-3.1576,-3.1576,-3.1575,-3.1575,-3.1575,0,-3.2604,-3.2554,-3.2496,-3.2411,-3.236,-3.2325,-3.225,-3.2208,-3.2144,-3.2072,-3.2008,-3.1919,-3.184,-3.1752,-3.1666,-3.1631,-3.1605,-3.161,-3.1611,-3.1598,-3.1587,-3.1603,-3.1633,-3.1633,-3.1633,-3.1633,-3.1633,-3.1633,-3.2602,-3.2544,-3.2504,-3.2416,-3.2364,-3.2295,-3.2255,-3.2199,-3.2142,-3.205,-3.1987,-3.1933,-3.1852,-3.1761,-3.1686,-3.1661,-3.1632,-3.1645,-3.1613,-3.1604,-3.1599,-3.1594,-3.1608,-3.1639,-3.1639,-3.1629,-3.1629,-3.1629]}]]